Location: �chemir�
(47.5500°N, 0.1667°W)
Time: 14:50:18
(UTC+02:00)

ISS - Pass Details

Date: 17 May 2021
Orbit: 419 x 422 km, 51.6° (Epoch: 25 June)

Event Time Altitude Azimuth Distance (km) Brightness Sun altitude
Rises 23:29:28 0° 255° (WSW) 2,365 0.3 -15.2°
Reaches altitude 10° 23:31:34 10° 259° (WSW) 1,503 -0.6 -15.4°
Maximum altitude 23:34:55 63° 341° (NNW) 474 -3.3 -15.7°
Drops below altitude 10° 23:38:18 10° 64° (ENE) 1,509 -1.0 -16.0°
Enters shadow 23:41:57 -5° 69° (ENE) 3,008 0.5 -16.4°
